www.pogodaiklimat.ru

Погода и климат >> Архив погоды >> Россия >> Ульяновская область >> Димитровград


ПОГОДА в Димитровграде

АРХИВ ПОГОДЫ в Димитровграде

Время (UTC), дата Ветер
(напр.,м/с)
 
Видим.   Явления Облачность Т
(С)
Тd
(С)
f
(%)
Тe
(С)
Тes
(С)
Комфортность P
(гПа)
Po
(гПа)
Тmin
(С)
Tmax
(С)
R
(мм)
R24
(мм)
S
(см)
18 16.07 штиль 0 10 км 10/0
[Ac lent]
+18.3 +12.3 68 +19 +19 по сезону 1013.5 1004.9
21 16.07 В 1 10 км 10/0
[As op]
+19.7 +11.1 58 +22 +22 комфорт 1013.5 1004.9
00 17.07 В 1 10 км 10/10 870 м
[Sc]
+18.7 +10.9 60 +20 +20 тепло 1013.3 1004.7
03 17.07 В 1 10 км {ливн. осадки} 10/10 800 м
[Cb cap]
+17.4 +12.7 74 +18 +18 по сезону 1013.2 1004.6 +16.9 0.3
06 17.07 ЮВ 1 10 км {ливн. осадки} 10/10 870 м
[Sc]
+21.0 +15.3 70 +25 +25 комфорт 1012.4 1003.9
09 17.07 В 2 10 км слаб. ливневой дождь 10/10 840 м
[Cb cap]
+20.1 +15.1 73 +23 +23 комфорт 1012.4 1003.9
12 17.07 СВ 2 10 км в посл. час ливневой дождь 10/10 800 м
[Cb cap]
+19.1 +17.4 90 +21 +21 комфорт 1011.4 1002.9
15 17.07 СВ 2 10 км слаб. ливневой дождь 10/10 840 м
[Cb cap]
+18.5 +16.8 90 +20 +20 прохладно 1010.2 1001.7 +21.5 2
18 17.07 СВ 2 10 км {ливн. осадки} 4/3 870 м
[Sc Ci sp]
+17.9 +15.9 88 +18 +18 прохладно 1009.3 1000.7
21 17.07 СВ 1 10 км слаб. ливневой дождь 10/10 840 м
[Cb cap]
+16.9 +15.2 90 +18 +18 по сезону 1009.3 1000.7
00 18.07 В 2 10 км {ливн. осадки} 10/10 870 м
[Sc]
+17.2 +14.9 86 +18 +18 тепло 1007.6 999.0
03 18.07 В 2 10 км 4/3 870 м
[Sc Ci sp]
+17.6 +15.0 85 +18 +20 по сезону 1006.8 998.2 +16.6 1
06 18.07 В 2 10 км ясно +23.9 +16.1 62 +27 +38 жарко 1005.7 997.3
09 18.07 Ю 2 10 км ясно +27.4 +14.7 46 +30 +45 жарко 1005.0 996.7
12 18.07 ЮЗ 2 10 км ясно +30.5 +14.9 39 +33 +42 душно 1004.8 996.6
15 18.07 З 3 10 км ясно +26.3 +17.0 57 +30 +31 душно 1005.4 997.1 +30.8
18 18.07 З 2 10 км 5/5 870 м
[Sc]
+22.0 +16.2 70 +26 +26 душно 1006.6 998.2
21 18.07 СЗ 1 10 км ясно +19.9 +16.5 81 +24 +24 комфорт 1007.2 998.7
00 19.07 ЮЗ 1 10 км ясно +17.4 +16.2 93 +18 +18 тепло 1008.1 999.5
03 19.07 З 2 10 км 5/0
[Ci]
+20.7 +16.8 78 +25 +27 комфорт 1009.0 1000.5 +16.9
06 19.07 З 2 10 км 9/0
[Cc]
+23.9 +16.5 63 +27 +36 жарко 1009.1 1000.7
09 19.07 СЗ 2 10 км 3/0
[Cc]
+28.0 +12.8 39 +29 +44 жарко 1009.4 1001.2
12 19.07 З 2 10 км 9/6 900 м
[Cb cap Cc]
+27.0 +12.6 41 +29 +32 жарко 1009.6 1001.3
15 19.07 ЮЗ 1 10 км 3/3 900 м
[Cu Sc]
+26.9 +11.9 39 +28 +29 жарко 1009.5 1001.2 +29.1
18 19.07 штиль 0 10 км 1/0
[Ci fib]
+19.1 +14.4 74 +20 +20 по сезону 1010.6 1002.1
21 19.07 СЗ 1 10 км ясно +15.5 +14.3 93 +16 +16 по сезону 1011.4 1002.8
00 20.07 СЗ 1 10 км ясно +13.8 +12.9 94 +14 +14 по сезону 1012.1 1003.4
03 20.07 З 1 10 км ясно +19.1 +14.1 73 +21 +24 комфорт 1012.6 1004.0 +13.7
06 20.07 ЮЗ 2 10 км ясно +25.8 +11.4 41 +27 +38 жарко 1012.6 1004.2
09 20.07 Ю 2 10 км 4/4 900 м
[Cu med, cong]
+27.2 +10.7 36 +28 +37 жарко 1012.6 1004.3
12 20.07 З 3 10 км 4/3 870 м
[Cu med, cong Ci sp]
+26.7 +8.3 31 +27 +32 жарко 1012.7 1004.3
15 20.07 З 2 10 км ясно +25.4 +8.1 33 +26 +27 жарко 1013.0 1004.6 +28.4
18 20.07 С 1 10 км 3/3 840 м
[Sc]
+17.6 +12.3 71 +19 +19 прохладно 1013.8 1005.2
21 20.07 СЗ 1 10 км 4/0
[Ci sp]
+16.2 +13.5 84 +17 +17 по сезону 1014.0 1005.3
00 21.07 штиль 0 10 км ясно +13.2 +12.3 94 +13 +13 по сезону 1014.1 1005.3
03 21.07 З 1 10 км ясно +19.4 +12.9 66 +22 +25 комфорт 1014.4 1005.8 +13.0
06 21.07 З 2 10 км ясно +24.2 +13.1 50 +26 +37 жарко 1014.2 1005.7
09 21.07 ЮЗ 2 10 км 6/6 840 м
[Cb cap]
+26.5 +12.3 41 +28 +34 жарко 1013.2 1004.8
12 21.07 Ю 2 10 км 8/8 840 м
[Cb cap]
+27.3 +11.8 38 +28 +30 жарко 1012.3 1004.0
15 21.07 СЗ 2 10 км 6/6 840 м
[Cb cap]
+23.7 +13.7 53 +26 +26 жарко 1012.9 1004.5 +27.3
18 21.07 З 1 10 км 4/4 870 м
[Cu hum]
+17.8 +16.4 92 +19 +19 по сезону 1013.6 1005.0
21 21.07 СЗ 1 10 км ясно +14.9 +14.1 95 +15 +15 прохладно 1013.3 1004.6
00 22.07 СЗ 1 10 км ясно +13.0 +12.3 96 +13 +13 по сезону 1013.4 1004.6
03 22.07 З 1 10 км ясно +17.9 +14.7 82 +19 +22 по сезону 1013.5 1004.9 +12.5
06 22.07 З 2 10 км 3/3 870 м
[Cu med, cong]
+22.8 +13.1 54 +26 +33 жарко 1012.5 1004.1
09 22.07 З 3 10 км 9/8 840 м
[Cb cap Ci sp]
+22.6 +13.3 56 +26 +28 жарко 1011.8 1003.4
12 22.07 СЗ 3 10 км {ливн. осадки} 8/5 840 м
[Cu med, cong Ci sp]
+24.2 +11.6 45 +26 +29 жарко 1011.4 1003.0
15 22.07 З 3 10 км 9/6 800 м
[Cb cap Ac trans]
+21.0 +12.0 56 +24 +24 комфорт 1011.7 1003.2 +24.7
18 22.07 З 1 10 км 10/10 840 м
[Sc]
+18.0 +12.1 68 +19 +19 по сезону 1012.2 1003.6
21 22.07 З 1 10 км ясно +15.7 +12.3 80 +16 +16 по сезону 1012.6 1003.9
00 23.07 СЗ 1 10 км ясно +15.2 +12.4 83 +16 +16 по сезону 1012.5 1003.8
03 23.07 З 1 10 км 10/10 840 м
[Sc]
+16.3 +13.9 86 +17 +17 по сезону 1013.6 1004.9 +12.1
06 23.07 З 2 10 км 6/6 870 м
[Cb cap]
+20.5 +12.4 60 +23 +28 комфорт 1013.5 1005.0
09 23.07 С 2 10 км 6/6 900 м
[Cb cap]
+22.2 +11.7 51 +24 +30 комфорт 1014.0 1005.5
12 23.07 СЗ 2 10 км 4/4 900 м
[Cu med, cong]
+24.8 +11.2 42 +26 +31 жарко 1014.0 1005.6

 

Местоположение метеостанции Димитровград (Ульяновская область, Россия): широта 54.23 долгота 49.60 высота над уровнем моря 73 м.

В архиве по умолчанию представлена погода в Димитровграде за последнюю неделю. Архивные данные за месяц целиком и за предыдущие месяцы, начиная с января 2011 года, Вы можете получить, выбрав интересующий диапазон дат из раскрывающегося списка и нажав кнопку "Ввод!".


*Определитесь, кто Вы:
робот инопланетянин человек

Внимание! Время в таблицах - всемирное. Для получения местного времени необходимо прибавить поправку, которая равна 4 ч.

Смотрите также архив погоды в соседних городах и на ближайших метеорологических станциях:

Погода в Сенгилее (Ульяновская область, Россия) (60 км)
Погода в Чулпаново (Татарстан, Россия) (61 км)
Погода в Тольятти (Самарская область, Россия) (80 км)
Погода в Тольятти (дамба) (Самарская область, Россия) (85 км)
Погода в Новодевичьем (Самарская область, Россия) (86 км)
Погода в Ульяновске (Ульяновская область, Россия) (89 км)
Погода в Курумоче (Самарская область, Россия) (89 км)
Погода в Тетюшах (Татарстан, Россия) (96 км)
Погода в Челно-Вершинах (Самарская область, Россия) (100 км)
Погода в Аксубаево (Татарстан, Россия) (101 км)

Пояснения к столбцам:

Ветер - указаны скорость ветра в м/с - средняя за 10 мин, порывы в срок и между сроками (в фигурных скобках) и направление, откуда дует ветер: С - северный, СВ - северо-восточный, В - восточный, ЮВ - юго-восточный, Ю - южный, ЮЗ - юго-западный, З - западный, СЗ - северо-западный.
Видимость - горизонтальная дальность видимости в метрах или километрах. При видимости от 1 до 10 км при отсутствии осадков обычно наблюдается дымка, при ухудшении видимости до 1 км и менее - туман. В сухую погоду видимость может ухудшаться дымом, пылью или мглою.
Явления - указаны атмосферные явления, наблюдавшиеся в срок или в последний час перед сроком; фигурными скобками обозначены явления, наблюдавшиеся между сроками (за 1-3 часа до срока); квадратными скобками обозначены град или гололедные отложения с указанием их диаметра в мм.
Облачность - указаны через наклонную черту общая и нижняя облачность в баллах и высота нижней границы облаков в метрах; квадратными скобками обозначены формы облаков: Ci - перистые, Cs - перисто-слоистые, Cc - перисто-кучевые, Ac - высококучевые, As - высокослоистые, Sc - слоисто-кучевые, Ns - слоисто-дождевые, Cu - кучевые, Cb - кучево-дождевые. Подробнее классификацию облаков см. в Атласе облаков (PDF).
T - Температура воздуха - температура, измеренная на высоте 2 м над землей.
Td - Температура точки росы - температура, при понижении до которой содержащийся в воздухе водяной пар достигнет насыщения.
f - Относительная влажность воздуха - влажноcть воздуха, измеренная на высоте 2 м над землей.
Te - Эффективная температура - температура, которую ощущает одетый по сезону человек в тени. Характеристика душности погоды. При расчете учитывается влияние влажности воздуха и скорости ветра на теплоощущения человека.
Tes - Эффективная температура на солнце - температура, которую ощущает человек, с поправкой на солнечный нагрев. Характеристика знойности погоды. Зависит от высоты солнца над горизонтом, облачности и скорости ветра. Ночью, в пасмурную погоду, а также при ветре 12 м/с и более поправка равна нулю.
P - Атмосферное давление - приведенное к уровню моря атмосферное давление.
Po - Атмосферное давление - измеренное на уровне метеостанции атмосферное давление.
Tmin - Минимальная температура - минимум температуры воздуха на высоте 2 м над землей.
Tmax - Максимальная температура - максимум температуры воздуха на высоте 2 м над землей.
R - Количество осадков - Количество выпавших осадков за период времени, мм. При наведении курсора мыши на число - период времени, за который выпало указанное количество осадков.
R24 - Количество осадков - Количество выпавших осадков за 24 часа, мм.
S - Снежный покров - Высота снежного покрова, см. При наведении курсора мыши на число - состояние снежного покрова и степень покрытия местности в баллах.